sat.trackr.live / text

‹ back to catalog

STARLINK-30104

NORAD 56300 · 2023-056Q

PAYLOAD ACTIVE UNKNOWN

§ Identity

Operator
Country
US
Launch date
2023-04-19
Launch site
AFETR
Launch vehicle
Mass (kg)
RCS (m²)

Purposes: comms

External: N2YO · Heavens-Above · Gunter

§ Orbital elements

Epoch: 2026-09-19T04:54:18.056160Z

Period
94.27 min
Inclination
43.0023°
Eccentricity
0.0000813
Mean motion
15.27578570 rev/d
Perigee alt
482.5 km
Apogee alt
483.6 km
Semi-major
6,861.2 km
B*
4.6745e-5
RAAN
196.2215°
Arg perigee
268.9967°
Mean anomaly
91.0791°
Rev number
18,969

§ Raw data

STARLINK-301041 56300U 23056Q   26262.20437565  .00001025  00000+0  46745-4 0  99972 56300  43.0023 196.2215 0000813 268.9967  91.0791 15.27578570189690

JSON: /api/v1/satellites/56300 · /tle

For live sub-satellite position, see the globe view (requires WebGL).

§ Visibility from observer

Set your observer location to see the next 7 days of passes ≥ 10°. The values pass through the URL so the page stays shareable.

No JS? Fill the form by hand. The geolocation button needs JavaScript.